Edwards AFB, CA

6:46 PM PST on December 13, 2017 (GMT -0800)
Edwards Air Force Base

Weather History for KEDW - January, 2012

Change the Weather History Date:

Tuesday, January 3, 2012

  Actual Average Record
Temperature  
Mean Temperature 46 °F -  
Max Temperature 63 °F 56 °F 70 °F (2007)
Min Temperature 28 °F 30 °F 15 °F (2013)
Degree Days  
Heating Degree Days 20    
Moisture  
Dew Point 14 °F    
Average Humidity 35    
Maximum Humidity 49    
Minimum Humidity 15    
Precipitation  
Precipitation 0.00 in - - ()
Sea Level Pressure  
Sea Level Pressure 30.33 in    
Wind  
Wind Speed 2 mph (West)    
Max Wind Speed 7 mph    
Max Gust Speed -    
Visibility 10 miles    
Events      
Averages and records for this station are not official NWS values.
T = Trace of Precipitation, MM = Missing Value Source: NWS Daily Summary

Daily Weather History Graph

Daily Weather History Graph

Search for Another Location

Airport or City:

Trip Planner

Search our weather history database for the weather conditions in past years. The results will help you decide how hot, cold, wet, or windy it might be!

Date:

Astronomy

Jan. 03, 2012 Rise Set
Actual Time 6:59 AM PST 4:52 PM PST
Civil Twilight 6:31 AM PST 5:20 PM PST
Nautical Twilight 6:00 AM PST 5:51 PM PST
Astronomical Twilight 5:29 AM PST 6:22 PM PST
Moon 12:39 PM PST (1/3) 1:58 AM PST (1/3)
Length of Visible Light 10h 48m
Length of Day
9h 52m
Waxing Gibbous, 73% of the Moon is Illuminated
Jan 3
Waxing Gibbous
Jan 8
Full
Jan 16
Last Quarter
Jan 22
New
Jan 30
First Quarter

Hourly Weather History & Observations

Time (PST) Temp. Windchill Dew Point Humidity Pressure Visibility Wind Dir Wind Speed Gust Speed Precip Events Conditions
12:50 AM 33.8 °F 30.8 °F 12.2 °F 41% 30.31 in 10.0 mi ENE 3.5 mph - N/A   Mostly Cloudy
12:55 AM 34.0 °F - 11.3 °F 39% 30.32 in 10.0 mi Calm Calm - N/A   Mostly Cloudy
12:56 AM 33.8 °F - 10.4 °F 38% 30.32 in 10.0 mi Calm Calm - N/A   Scattered Clouds
1:24 AM 33.8 °F - 12.2 °F 41% 30.31 in 10.0 mi Calm Calm - N/A   Mostly Cloudy
1:28 AM 33.8 °F - 12.2 °F 41% 30.32 in 10.0 mi Calm Calm - N/A   Scattered Clouds
1:55 AM 34.3 °F 31.4 °F 12.2 °F 40% 30.33 in 10.0 mi NW 3.5 mph - N/A   Clear
2:55 AM 31.1 °F 24.5 °F 11.8 °F 45% 30.33 in 10.0 mi SW 6.9 mph - N/A   Clear
3:55 AM 30.9 °F - 13.5 °F 48% 30.30 in 10.0 mi Calm Calm - N/A   Clear
4:55 AM 30.0 °F 26.5 °F 12.2 °F 48% 30.30 in 10.0 mi NNE 3.5 mph - N/A   Clear
5:55 AM 28.6 °F 23.5 °F 10.2 °F 46% 30.33 in 30.0 mi North 4.6 mph - N/A   Partly Cloudy
6:55 AM 28.9 °F - 11.3 °F 48% 30.36 in 90.0 mi Calm Calm - N/A   Mostly Cloudy
7:55 AM 33.1 °F 30.0 °F 12.9 °F 43% 30.37 in 90.0 mi West 3.5 mph - N/A   Mostly Cloudy
8:55 AM 38.5 °F - 15.1 °F 39% 30.38 in 90.0 mi Calm Calm - N/A   Scattered Clouds
9:55 AM 44.1 °F - 15.3 °F 31% 30.39 in 90.0 mi Calm Calm - N/A   Mostly Cloudy
10:55 AM 47.8 °F - 16.2 °F 28% 30.35 in 90.0 mi Calm Calm - N/A   Mostly Cloudy
11:55 AM 56.3 °F - 17.1 °F 22% 30.31 in 90.0 mi Calm Calm - N/A   Mostly Cloudy
12:55 PM 60.4 °F - 16.9 °F 18% 30.28 in 90.0 mi Calm Calm - N/A   Mostly Cloudy
1:55 PM 62.6 °F - 14.5 °F 15% 30.27 in 90.0 mi Calm Calm - N/A   Mostly Cloudy
2:55 PM 63.7 °F - 15.8 °F 16% 30.27 in 90.0 mi North 3.5 mph - N/A   Mostly Cloudy
3:55 PM 63.1 °F - 16.5 °F 16% 30.29 in 90.0 mi North 2.3 mph - N/A   Mostly Cloudy
4:55 PM 57.9 °F - 16.2 °F 20% 30.30 in 80.0 mi Calm Calm - N/A   Mostly Cloudy
5:55 PM 50.5 °F - 16.2 °F 26% 30.33 in 70.0 mi SW 2.3 mph - N/A   Scattered Clouds
6:55 PM 43.3 °F - 13.6 °F 30% 30.36 in 60.0 mi SW 2.3 mph - N/A   Scattered Clouds
7:55 PM 42.3 °F - 12.6 °F 30% 30.37 in 60.0 mi South 2.3 mph - N/A   Partly Cloudy
8:55 PM 37.4 °F 33.8 °F 12.9 °F 37% 30.39 in 60.0 mi WSW 4.6 mph - N/A   Partly Cloudy
9:55 PM 36.9 °F 33.1 °F 13.5 °F 38% 30.39 in 60.0 mi SW 4.6 mph - N/A   Partly Cloudy
10:55 PM 35.8 °F 30.9 °F 17.1 °F 47% 30.39 in 10.0 mi WSW 5.8 mph - N/A   Clear
11:55 PM 31.8 °F 27.3 °F 14.4 °F 49% 30.38 in 10.0 mi SW 4.6 mph - N/A   Clear